Tracking 33744 objects as of 14-Apr-2026
HD Live streaming from Space Station
objects crossing your sky now

STARLINK-36853

Track STARLINK-36853 now!
10-day predictions
STARLINK-36853 is classified as:


NORAD ID: 68097
Int'l Code: 2026-042AE
Perigee: 350.3 km
Apogee: 351.6 km
Inclination: 53.2 °
Period: 91.4 minutes
Semi major axis: 6721 km
RCS: Unknown
Launch date: March 4, 2026
Source: United States (US)
Launch site: AIR FORCE EASTERN TEST RANGE (AFETR)
Your satellite tracking list
Your tracking list is empty




NASA's NSSDC Master Catalog

Two Line Element Set (TLE):
1 68097U 26042AE  26104.00966336  .00096222  00000-0  62352-3 0  9992
2 68097  53.1583  18.1927 0000946  76.7659 283.3467 15.75284474  7652
Source of the keplerian elements: AFSPC